Regional Weather Roundup
Issued by NWS

Home | Current Version | Previous Version | Text Only | Print | Product List | Glossary On
Versions: 1 2 3 4 5 6 7 8 9 10 11 12 13 14 15 16 17 18 19 20 21 22 23 24 25 26 27
000
ASUS42 KTBW 290316
RWRFL
FLORIDA REGIONAL WEATHER ROUNDUP
NATIONAL WEATHER SERVICE TAMPA BAY RUSKIN FL
1100 PM EDT TUE MAR 28 2017

NOTE: "FAIR" INDICATES FEW OR NO CLOUDS BELOW 12,000 FEET WITH NO
SIGNIFICANT WEATHER AND/OR OBSTRUCTIONS TO VISIBILITY.

FLZ001>010-012>015-112-114-115-290400-
PANHANDLE FLORIDA

CITY           SKY/WX    TMP DP  RH WIND       PRES   REMARKS
PENSACOLA      MOCLDY    73  68  84 S12       30.02R
PENSACOLA NAS  MOCLDY    71  69  93 S9        30.02R
MILTON NAS     PTCLDY    67  67 100 SW5       30.02
CRESTVIEW      PTCLDY    69  66  90 SW5       30.03S
DUKE FIELD     PTCLDY    69  68  94 SW6       30.01R
VALPARAISO     MOCLDY    71  68  91 SW6       30.02R
MARY ESTHER    PTCLDY    71  68  92 S7        30.01R
PANAMA CITY    FAIR      68  66  93 S5        30.02R
TYNDALL AFB    CLEAR     69  67  94 S6        30.03R
APALACHICOLA   CLEAR     67  66  97 CALM      30.03R

STATION/POSITION SKY/WX   TEMP    WIND        PRES    WAVE   SWELL
                          AIR SEA DIR/SP/G            HT/PER HT/PER
                          (F)     (DEG/KT/KT) (MB)    (FT/S) (FT/S)
30.1N   87.6W              72 72  180/ 10/ 12 1015.7    2/ 6   2/ 6
29.2N   88.2W              73 74  160/ 12/ 16 1016.0S   3/ 6   2/ 6
28.8N   86.0W              72 72              1016.7    2/ 6   2/ 6
PANAMA CITY BEAC           70 74  200/  5/  7 1017.1R
TOWER C                    69     200/  7/  8 1017.6R
28.5N   84.5W              71 72   CALM  /  2 1016.9    1/ 6   2/ 6

$$
FLZ011-016>038-118-127-128-134-139-239-290400-
NORTH FLORIDA

CITY           SKY/WX    TMP DP  RH WIND       PRES   REMARKS
MARIANNA       CLEAR     70  66  87 SW7       30.01R
TALLAHASSEE    PTCLDY    68  64  87 CALM      30.03R
PERRY          CLEAR     65  62  90 CALM      30.04S
CROSS CITY     CLEAR     61  59  94 CALM      30.04R
LAKE CITY      FAIR      68  59  73 W6        30.03S
GAINESVILLE    CLEAR     68  55  63 W5        30.03R
WILLISTON      CLEAR     66  59  77 CALM      30.05R
PALATKA        MOCLDY    64  59  82 SW3       30.03R
MAYPORT NAS    PTCLDY    68  61  78 S7        30.01R
JACKSONVILLE   CLEAR     68  63  84 CALM      30.01R
JAX NAS        PTCLDY    74  63  68 SW5       30.02R
FERNANDINA BEA FAIR      70  63  78 CALM      30.00R
ST AUGUSTINE   CLEAR     70  58  65 S6        30.03R

STATION/POSITION SKY/WX   TEMP    WIND        PRES    WAVE   SWELL
                          AIR SEA DIR/SP/G            HT/PER HT/PER
                          (F)     (DEG/KT/KT) (MB)    (FT/S) (FT/S)
SHELL POINT      NOT AVBL
KEATON BEACH               71     250/  9/ 10 1016.6S
CEDAR KEY                  70     300/  4/  5 1017.1R
FERNANDINA                 71 68  170/  5/  6 1016.8R
30.7N   81.3W                 67                N/A     4/12   2/12
MAYPORT                    70 66  210/  5/  7 1016.6R
31.4N   80.9W              66 64  210/ 10/ 12 1014.7    3/11   3/11
ST AUGUSTINE               71 69  210/  7/  9 1017.4R

$$
FLZ040-043>046-052-053-057-058-063-144-290400-
INTERIOR CENTRAL FLORIDA

CITY           SKY/WX    TMP DP  RH WIND       PRES   REMARKS
OCALA          CLEAR     66  57  72 W6        30.04R
THE VILLAGES     N/A     68  61  77 CALM      29.94R
LEESBURG       MOCLDY    71  61  70 CALM      30.05R
SANFORD        PTCLDY    74  56  53 S6        30.04R
ORLANDO EXEC   CLEAR     75  56  51 S5        30.05R
ORLANDO INTL   PTCLDY    74  55  51 SE3       30.05R
KISSIMMEE      MOCLDY    73  57  57 SE3       30.06R
WINTER HAVEN   PTCLDY    74  58  57 N6        30.06R
LAKELAND       CLEAR     70  61  73 NW3       30.05R
BARTOW         FAIR      73  59  60 CALM      30.05S
OKEECHOBEE     CLEAR    N/A N/A N/A E5        30.06R

$$
FLZ041-047-054-059-064-141-147-290400-
EAST CENTRAL FLORIDA

CITY           SKY/WX    TMP DP  RH WIND       PRES   REMARKS
DAYTONA BEACH  PTCLDY    68  60  75 S5        30.04R
DELAND         CLEAR     72  59  64 S7        30.04R
JFK SPACE CTR  CLEAR     69  64  84 S3        30.03R
CAPE CANAVERAL CLEAR     70  65  83 S8        30.03R
PATRICK AFB    CLEAR     73  67  82 S10       30.03R
MELBOURNE      CLEAR     71  65  81 S5        30.04R
VERO BEACH     CLEAR     70  64  81 SE5       30.05R
FT PIERCE      CLEAR     62  60  93 CALM      30.05R
STUART         CLEAR     72  63  73 SE3       30.07R

STATION/POSITION SKY/WX   TEMP    WIND        PRES    WAVE   SWELL
                          AIR SEA DIR/SP/G            HT/PER HT/PER
                          (F)     (DEG/KT/KT) (MB)    (FT/S) (FT/S)
TRIDENT PIER               72 74  140/  7/ 10 1018.3R
28.4N   80.5W                 72                N/A     2/10   2/11
27.5N   80.2W                 74                N/A     3/10   2/11

$$
FLZ050-056-061-142-242-148-248-149-249-151-251-155-255-
160-260-290400-
WEST CENTRAL FLORIDA

CITY           SKY/WX    TMP DP  RH WIND       PRES   REMARKS
CRYSTAL RIVER  FAIR      61  59  94 CALM      30.04S
INVERNESS      FAIR      63  63 100 CALM      30.05R
BROOKSVILLE    CLEAR     63  61  93 CALM      30.05R
CLEARWATER AIR FAIR      68  64  88 CALM      30.04S
ST PETE CLEARW CLEAR     70  66  87 N6        30.04R
TAMPA INTL     CLEAR     70  65  84 N5        30.05R
TAMPA EXEC     CLEAR     68  63  83 CALM      30.05R
PLANT CITY     CLEAR     70  63  78 CALM      30.06S
MACDILL AFB    CLEAR     68  66  92 NW3       30.04R
PETER O KNIGHT MOCLDY    72  68  88 CALM      30.04S
ST PETERSBURG  CLEAR     70  66  87 N7        30.02R
SARASOTA       CLEAR     69  65  86 CALM      30.02R
VENICE           N/A     72  68  88 CALM      30.04R

STATION/POSITION SKY/WX   TEMP    WIND        PRES    WAVE   SWELL
                          AIR SEA DIR/SP/G            HT/PER HT/PER
                          (F)     (DEG/KT/KT) (MB)    (FT/S) (FT/S)
27.3N   84.2W                 71                N/A     1/ 5
CLEARWATER BEACH           71 73  340/  6/  7 1017.4R
MIDDLE TAMPA BAY           71     350/  6/  7 1017.4R
VENICE                     71 73   10/  3/  4 1016.8R

$$
FLZ066-069-070-075>078-162-262-165-265-290400-
SOUTHWEST FLORIDA AND KEYS

CITY           SKY/WX    TMP DP  RH WIND       PRES   REMARKS
PUNTA GORDA    CLEAR     66  60  81 E3        30.06R
FT MYERS       CLEAR     73  64  73 N3        30.04R
SOUTHWEST INTL CLEAR     71  63  75 CALM      30.04R
NAPLES         CLEAR     72  66  81 N3        30.04R
IMMOKALEE      MOCLDY    64  61  88 CALM      30.03S
MARATHON       CLEAR     76  68  76 E3        30.03R
KEY WEST NAS   CLEAR     74  67  78 NE5       30.03R
KEY WEST INTL  CLEAR     75  69  81 NE5       30.03R

STATION/POSITION SKY/WX   TEMP    WIND        PRES    WAVE   SWELL
                          AIR SEA DIR/SP/G            HT/PER HT/PER
                          (F)     (DEG/KT/KT) (MB)    (FT/S) (FT/S)
NAPLES                        75              1016.9R
26.0N   85.6W              76 78  100/ 12/ 14 1016.8R   2/ 5
DRY TORTUGAS               74      80/  9/ 10 1016.8R
SAND KEY                   76      60/ 10/ 11 1017.3R
LONG KEY                   76 78  160/  4/  5 1017.2R
MOLASSES REEF              76 78  150/  6/  6 1017.3

$$
FLZ067-068-071>074-168-172>174-290400-
SOUTHEAST FLORIDA

CITY           SKY/WX    TMP DP  RH WIND       PRES   REMARKS
W PALM BEACH   PTCLDY    74  60  61 SE7       30.06R
BOCA RATON     PTCLDY    73  66  78 SE6       30.05
FT LAUDER-EXEC PTCLDY    77  63  61 SE5       30.05R
FT LAUDERDALE  MOCLDY    76  65  68 SE5       30.04R
POMPANO BEACH  PTCLDY    76  65  68 SE6       30.05R
PEMBROKE PINES CLOUDY    76  65  68 S3        30.06R
OPA LOCKA      CLOUDY    76  66  71 SE5       30.06R
MIAMI          MOCLDY    74  67  78 S5        30.06R
WEST KENDALL   CLOUDY    76  65  68 SE5       30.05R
HOMESTEAD      MOCLDY    72  69  90 CALM      30.04R

STATION/POSITION SKY/WX   TEMP    WIND        PRES    WAVE   SWELL
                          AIR SEA DIR/SP/G            HT/PER HT/PER
                          (F)     (DEG/KT/KT) (MB)    (FT/S) (FT/S)
PORT EVERGLADES            77     150/  4/  7 1017.5R
LAKE WORTH                        120/  8/ 10   N/A
FOWEY ROCKS                75 77  120/  6/  7 1018.2R
SETTLEMENT POINT           73      80/  8/ 10 1018.0R

$$





USA.gov is the U.S. government's official web portal to all federal, state and local government web resources and services.